Location: Newark
(50.1751°N, 5.6239°W)
Time: 08:55:15
(UTC+00:00)

Nauka - Pass Details

Date: 19 September 2021
Orbit: 417 x 423 km, 51.6° (Epoch: 23 October)

Event Time Altitude Azimuth Distance (km) Brightness Sun altitude
Rises 21:08:50 0° 261° (W) 2,362 ? -25.0°
Reaches altitude 10° 21:10:55 10° 263° (W) 1,500 ? -25.3°
Enters shadow 21:12:23 24° 267° (W) 922 ? -25.5°
